Regional Weather Roundup
Issued by NWS Wakefield, VA

Home | Current Version | Previous Version | Text Only | Print | Product List | Glossary Off
Versions: 1 2 3 4 5 6 7 8 9 10 11 12 13 14 15 16 17 18 19 20 21 22 23 24 25 26 27 28 29 30 31 32 33 34 35 36 37 38 39 40 41 42 43 44 45 46 47 48 49 50

000
ASUS41 KAKQ 251910
RWRAKQ

REGIONAL WEATHER ROUNDUP
NATIONAL WEATHER SERVICE WAKEFIELD VA
200 PM EST TUE NOV 25 2014

Note: "fair" indicates few or no clouds below 12,000 feet with no
significant weather and/or obstructions to visibility. * = Denotes
station may not report precipitation (e.g., rain,snow,etc.),
thunder or fog.

VAZ042-051-052>054-056-252000-
NORTHERN VIRGINIA

CITY           SKY/WX    TMP DP  RH WIND       PRES   REMARKS
WASH NATIONAL  CLOUDY    57  32  38 N8        30.04F
DULLES         CLOUDY    55  32  41 NW3       30.04F
FORT BELVOIR   CLOUDY    56  33  42 NW6       30.04F
QUANTICO       CLOUDY    52  36  54 E5        30.05F
FREDERICKSBRG* CLOUDY    56  38  50 CALM      30.03F
STAFFORD*      CLOUDY    55  35  46 CALM      30.08F
WARRENTON      CLOUDY    57  43  58 CALM      30.03F
CULPEPER*      CLOUDY    57  37  47 CALM      30.04F
MANASSAS*      NOT AVBL
LEESBURG*      CLOUDY    57  34  41 NW8       30.04F
WINCHESTER     CLOUDY    55  19  24 SW5       30.03F
FRONT ROYAL*   MOCLDY    55  28  35 W9        30.02F
LURAY*         MOCLDY    57  30  35 W5        30.02F
$$

VAZ048-049-060>072-079>083-252000-
CENTRAL AND SOUTH CENTRAL VIRGINIA

CITY           SKY/WX    TMP DP  RH WIND       PRES   REMARKS
RICHMOND       CLOUDY    59  40  49 N7        30.04S
CHESTERFIELD*  CLOUDY    59  37  44 N5        30.05S
PETERSBURG*    CLOUDY    60  46  59 N3        30.04R
HANOVER        CLOUDY    57  41  55 N3        30.05F
TAPPAHANNOCK*  CLOUDY    56  33  40 N6        30.03F
QUINTON*       CLOUDY    56  42  58 N5        30.03S
CHARLOTTSVILLE PTSUNNY   57  28  33 VRB5      30.03F
GORDONSVILLE*  MOCLDY    56  29  35 CALM      30.02F
ORANGE*        CLOUDY    59  32  36 SW6       30.04F
LOUISA*        CLOUDY    57  36  44 W5        30.02F
BUMPASS*       MOCLDY    56  41  58 NW5       30.03F
FARMVILLE*     CLOUDY    59  37  44 CALM      30.03F
CREWE*         CLOUDY    57  35  43 NW6       30.04R
FORT PICKETT*  CLOUDY    58  40  51 NW5       30.04R
CHASE CITY*    CLOUDY    56  37  48 W5        30.03F
CLARKSVILLE*   CLOUDY    54  37  54 N5        30.03F
SOUTH HILL*    CLOUDY    56  42  59 NW3       30.09R
LAWRENCEVILLE* CLOUDY    57  46  66 W3        30.03R
$$

VAZ088>098-252000-
SOUTHEAST VIRGINIA

CITY           SKY/WX    TMP DP  RH WIND       PRES   REMARKS
NORFOLK        LGT RAIN  56  46  69 N10       30.01S
VIRGINIA BEACH LGT RAIN  55  49  80 N10       30.00S
NORFOLK NAVAL  LGT RAIN  56  46  69 NE12      30.03F
WEST POINT*    CLOUDY    60  38  45 N5        30.03F
SALUDA*        CLOUDY    56  42  60 NE3       30.02S
NEWPORT NEWS   CLOUDY    58  46  64 NE5       30.02R
LANGLEY AFB    DRIZZLE   54  46  76 NE14      30.02S
FORT EUSTIS    CLOUDY    58  43  57 NE3       30.01R
WILLIAMSBURG*  CLOUDY    61  52  72 CALM      30.03R
HR EXEC AP*    CLOUDY    54  54 100 CALM      30.03F
FRANKLIN*      CLOUDY    61  57  88 CALM      30.00F
WAKEFIELD      LGT RAIN  59  46  62 N5        30.02R
$$

VAZ020-022-025-037-045-252000-
WEST CENTRAL AND SOUTHWEST VIRGINIA

CITY           SKY/WX    TMP DP  RH WIND       PRES   REMARKS
STAUNTON*      PTSUNNY   56  24  28 SW6       30.05F
WAYNESBORO*    NOT AVBL
HOT SPRINGS VA PTSUNNY   43  24  47 W13       29.99F
LYNCHBURG      PTSUNNY   57  29  34 VRB5      30.05F
DANVILLE       CLOUDY    58  35  42 NW7       30.04F
SOUTH BOSTON*  CLOUDY    55  35  46 NW7       30.04F
MARTINSVILLE   PTSUNNY   59  34  39 CALM      30.07F
ROANOKE        CLOUDY    54  24  31 SW7       30.06F
BLACKSBURG     PTSUNNY   54  30  40 SW3       30.07F
DUBLIN*        MOSUNNY   54  23  29 W8        30.06F
MARION*        SUNNY     51  27  39 SW9       30.07F
HILLSVILLE*    MOSUNNY   48  22  36 W12       30.05F
RICHLANDS*     CLEAR     53  25  34 W3        30.06S
WISE*          SUNNY     52  25  35 SW8       30.07S
ABINGDON*      SUNNY     53  29  39 SW5       30.07F
$$

MDZ021>025-VAZ099-100-252000-
SOUTHERN MARYLAND AND THE DELMARVA PENINSULA

CITY           SKY/WX    TMP DP  RH WIND       PRES   REMARKS
PATUXENT RIVER CLOUDY    55  36  48 N8        30.02F
BAY BRIDGE APT   N/A     52  32  46 CALM      30.05S
LEONARDTOWN    CLOUDY    55  34  44 NW3       30.04F
DOVER          CLOUDY    54  35  47 NW7       30.01F
GEORGETOWN     CLOUDY    56  33  42 N6        30.02F
EASTON         CLOUDY    55  36  47 N6        30.07F
CAMBRIDGE      CLOUDY    55  36  47 N7        30.02F
SALISBURY        N/A    N/A N/A N/A MISG      30.00F
OCEAN CITY     CLOUDY    56  37  49 N13       30.02R
WALLOPS ISLAND CLOUDY    57  42  57 NE5       30.03R
ACCOMACK*      CLOUDY    54  41  62 N5        30.02S
$$

NCZ012>017-030>032-252000-
NORTH CENTRAL AND EASTERN NORTH CAROLINA

CITY           SKY/WX    TMP DP  RH WIND       PRES   REMARKS
ROANOKE RAPIDS LGT RAIN  55  45  67 CALM      30.02F
RALEIGH        CLOUDY    58  43  57 NE7       30.01F
ELIZABETH CITY CLOUDY    65  59  81 W7        30.00S
AHOSKIE*       LGT RAIN  57  55  92 CALM      30.01F
EDENTON*       CLOUDY    62  60  93 NW7       30.01S
CURRITUCK*     CLOUDY    63  59  88 W8        30.01F
KILL DEVIL HLS CLOUDY    61  60  96 W3        30.00S
MANTEO         CLOUDY    62  60  94 CALM      30.01F
CAPE HATTERAS  CLOUDY    62  61  96 CALM      30.02S
TARBORO*       LGT RAIN  57  52  81 CALM      30.03S
GOLDSBORO      LGT RAIN  63  63 100 CALM      29.99F
WASHINGTON     CLOUDY    63  60  90 W3        30.03R
GREENVILLE     LGT RAIN  63  61  94 CALM      30.04R
NEW BERN       PTSUNNY   67  62  84 W3        30.03R
WILMINGTON     CLOUDY    67  63  87 W8        30.01F
$$

VAZ048-252000-
ELSEWHERE

CITY           SKY/WX    TMP DP  RH WIND       PRES   REMARKS
HARRISBURG PA  PTSUNNY   53  29  39 W14       30.02S
BALTIMORE      CLOUDY    54  30  40 W7        30.03F
ANNAPOLIS      CLOUDY    53  32  44 NW6       30.03F
ANDREWS AFB    CLOUDY    54  31  42 N3        30.03F
PHILADELPHIA   CLOUDY    55  28  35 W12G21    30.02F
WILDWOOD NJ*   CLOUDY    54  34  47 NW7         N/A
HENDERSON NC   CLOUDY    55  35  48 NW8       30.03F
GREENSBORO     CLOUDY    59  39  47 N7        30.04F
ROCKY MOUNT    LGT RAIN  57  52  83 N8        30.02F
$$

VAZ100-252000-
MARINE

STATION/POSITION TIME  TEMP    WIND        PRES    WAVE   SWELL
                       AIR SEA DIR/SP/G            HT/PER HT/PER
                 (UTC) (F)     (DEG/KT/KT) (MB)    (FT/S) (FT/S)
CAPE MAY NJ      1900   50 51  340/  6/  9 1016.2F
LEWES DE         1900   52 51   10/  9/ 11 1016.3F
15NM E FENWICK I 1900   54 54              1015.9F   5/ 9
OCEAN-CITY-INLET 1900   56 50  360/  8/ 10 1015.7F
WACHAPREAGUE VA  1900   55 53  360/  5/  6 1016.2F
THOMAS POINT MD  1900   53 49  340/  3/  4 1018.4F
GOOSES REEF MD   1900   50 49   40/  4/  8 1017.4F   0
COVE POINT MD    1900   51      30/ 11/ 12 1016.5F
SOLOMONS ISLAND  1900      50                N/A
BISHOPS HEAD MD  1900   54 50  360/  5/  8 1016.2F
PINEY POINT MD   1900          340/  6/  6   N/A
POTOMAC MD       1900   53 51   40/ 10/ 12 1015.9S   0
CAMBRIDGE MD     1900   50 46  340/  8/  9 1016.5F
LEWISETTA VA     1900   54 50   40/  2/  4 1016.3F
RAPPAHANNOCK LGT 1900          360/ 13/ 15 1016.9R
STINGRAY PT      1900   52 50   10/  8/ 10 1017.3R   1/ 3
YORK RVR RNG VA  1900   54      50/ 11/ 12 1015.9F
YORKTOWN VA      1900   55 52  100/  5/  6 1016.0F
JAMESTOWN VA     1900   57 51   10/  2/  4   N/A     0
DOMINION TERM VA 1900   55      40/  5/  9 1016.5S
KIPTOPEKE VA     1900      56   10/  9/ 11   N/A
CHES BAY BRIDGE  1900   54 53   10/ 12/ 15 1015.8F
CAPE HENRY VA    1900   54     350/ 13/ 15 1014.9F
CHESAPEAKE LGHT  1800   60     260/ 15/ 15 1016.4F
WILLOUBY STN VA  1900   53      20/ 11/ 13 1015.2S
S CRANEY ISL VA  1900           10/ 10/ 12 1016.1F
CAPE HENRY BUOY  1800      57                N/A     3/10   2/11
1ST LANDING BUOY 1900   54 54   10/ 12/ 14 1015.8F   2/ 3
CAPE CHARLES BUO 1900      55                N/A     3/10   3/10
64NM E OF VA BCH 1900   63 64  250/ 10/ 10 1015.8F   5/ 8   5/ 8
DUCK PIER NC     1900   60 59  270/  5/  6 1015.1F
44100 DUCK FRF   1900      59                N/A     4/ 8   2/11
44056 DUCK FRF   1900      58                N/A     3/ 9   2/11
OREGON INLET NC  1900   63 57  250/  2/  3 1016.2R
HATTERAS NC      1900   62 63   10/  4/  5 1016.8R
DIAMOND SHLS NC  1900   69     320/ 10/ 14 1016.3F   5/ 8   5/ 8
CAPE LOOKOUT NC  1900   65     300/  6/  7 1016.8R


USA.gov is the U.S. government's official web portal to all federal, state and local government web resources and services.